Location: Bosmont
(49.7318°N, 3.8587°E)
Time: 09:03:19
(UTC+00:00)

Cosmos-2242 - Pass Details

Date: 08 February 2023
Orbit: 587 x 612 km, 82.5° (Epoch: 20 March)

Event Time Altitude Azimuth Distance (km) Brightness Sun altitude
Rises 18:05:47 0° 357° (N) 2,831 6.4 -12.4°
Reaches altitude 10° 18:08:12 10° 8° (N) 1,925 5.4 -12.8°
Maximum altitude 18:12:00 31° 72° (ENE) 1,036 3.7 -13.4°
Drops below altitude 10° 18:15:48 10° 135° (SE) 1,915 5.2 -14.0°
Enters shadow 18:16:41 - 140° (SE) 2,240 5.6 -14.2°
